Back to catalog

STARLINK-30581

AliveCommunicationsVLEO
NORAD 58096·PAYLOAD·🇺🇸 United States

Launched Oct 18, 2023 from Cape Canaveral Space Force Station

Loading…

Next Passes (next 24 hours)

TLE

FreshSource: CelesTrak SupGP

Epoch: Sep 14, 2026, 20:44 UTC

1 58096C 23160X   26257.86437500  .00014179  00000+0  51409-3 0  2575
2 58096  43.0020  89.6206 0001406 257.5395 202.6926 15.27537765    13

Track STARLINK-30581 in real time with AllMySat

Download on the App Store